Location: Rochester
(43.1610°N, 77.6109°W)
Time: 05:49:46
(UTC-05:00)

Hubble Space Telescope - Pass Details

Date: 27 September 2022
Orbit: 530 x 534 km, 28.5° (Epoch: 06 December)

Event Time Altitude Azimuth Distance (km) Brightness Sun altitude
Rises 20:29:46 0° 230° (SW) 2,649 4.8 -17.3°
Reaches altitude 10° 20:34:25 10° 182° (S) 1,761 3.3 -18.1°
Maximum altitude 20:34:37 10° 179° (S) 1,759 3.2 -18.2°
Drops below altitude 10° 20:34:50 10° 176° (S) 1,761 3.2 -18.2°
Enters shadow 20:34:53 10° 176° (S) 1,762 3.2 -18.2°
